Ridgecrest, CA

10:15 AM PST on January 21, 2017 (GMT -0800)
China Lake

Weather History for KNID - June, 2013

Change the Weather History Date:

Friday, June 7, 2013

  Actual Average Record
Temperature  
Mean Temperature 88 °F -  
Max Temperature 109 °F 90 °F 109 °F (2013)
Min Temperature 68 °F 63 °F 45 °F (2011)
Cooling Degree Days 23    
Growing Degree Days 38 (Base 50)    
Moisture  
Dew Point 33 °F    
Average Humidity 16    
Maximum Humidity 35    
Minimum Humidity 4    
Precipitation  
Precipitation 0.00 in - - ()
Sea Level Pressure  
Sea Level Pressure 29.70 in    
Wind  
Wind Speed 6 mph (SSE)    
Max Wind Speed 13 mph    
Max Gust Speed 21 mph    
Visibility 10 miles    
Events      
Averages and records for this station are not official NWS values.
T = Trace of Precipitation, MM = Missing Value Source: NWS Daily Summary

Daily Weather History Graph

Daily Weather History Graph

Search for Another Location

Airport or City:

Trip Planner

Search our weather history database for the weather conditions in past years. The results will help you decide how hot, cold, wet, or windy it might be!

Date:

Astronomy

Jun. 07, 2013 Rise Set
Actual Time 5:34 AM PDT 8:04 PM PDT
Civil Twilight 5:04 AM PDT 8:34 PM PDT
Nautical Twilight 4:28 AM PDT 9:11 PM PDT
Astronomical Twilight 3:47 AM PDT 9:52 PM PDT
Moon 4:58 AM PDT (6/7) 7:24 PM PDT (6/7)
Length of Visible Light 15h 29m
Length of Day
14h 30m
Waning Crescent, 1% of the Moon is Illuminated
Jun 7
Waning Crescent
Jun 8
New
Jun 16
First Quarter
Jun 23
Full
Jun 29
Last Quarter

Hourly Weather History & Observations

Time (PDT) Temp. Dew Point Humidity Pressure Visibility Wind Dir Wind Speed Gust Speed Precip Events Conditions
12:56 AM 84.9 °F 44.1 °F 24% 29.71 in 10.0 mi South 12.7 mph - N/A   Clear
1:56 AM 82.9 °F 45.0 °F 26% 29.71 in 10.0 mi South 10.4 mph - N/A   Clear
2:56 AM 78.1 °F 41.0 °F 27% 29.73 in 10.0 mi SW 4.6 mph - N/A   Clear
3:56 AM 73.9 °F 39.9 °F 29% 29.73 in 10.0 mi Calm Calm - N/A   Clear
4:56 AM 72.0 °F 39.9 °F 31% 29.74 in 10.0 mi SSE 4.6 mph - N/A   Clear
5:56 AM 68.0 °F 39.0 °F 35% 29.76 in 10.0 mi Calm Calm - N/A   Clear
6:56 AM 73.0 °F 39.9 °F 30% 29.77 in 10.0 mi ENE 3.5 mph - N/A   Clear
7:56 AM 79.0 °F 42.1 °F 27% 29.77 in 10.0 mi Calm Calm - N/A   Clear
8:56 AM 87.1 °F 42.1 °F 21% 29.77 in 10.0 mi Calm Calm - N/A   Clear
9:56 AM 96.1 °F 37.9 °F 13% 29.76 in 10.0 mi ENE 5.8 mph - N/A   Clear
10:56 AM 100.0 °F 35.1 °F 10% 29.75 in 10.0 mi Variable 3.5 mph - N/A   Clear
11:56 AM 102.9 °F 33.1 °F 9% 29.74 in 10.0 mi Variable 5.8 mph - N/A   Partly Cloudy
12:56 PM 105.1 °F 30.0 °F 7% 29.73 in 10.0 mi Variable 5.8 mph - N/A   Partly Cloudy
1:56 PM 108.0 °F 23.0 °F 5% 29.70 in 10.0 mi SE 11.5 mph - N/A   Partly Cloudy
2:56 PM 108.0 °F 19.0 °F 4% 29.68 in 10.0 mi Variable 4.6 mph 16.1 mph N/A   Partly Cloudy
3:56 PM 108.0 °F 21.0 °F 5% 29.67 in 10.0 mi SE 9.2 mph 20.7 mph N/A   Clear
4:56 PM 108.0 °F 21.9 °F 5% 29.65 in 10.0 mi East 9.2 mph - N/A   Clear
5:56 PM 106.0 °F 21.0 °F 5% 29.65 in 10.0 mi Calm Calm - N/A   Clear
6:56 PM 106.0 °F 21.0 °F 5% 29.64 in 10.0 mi SSW 6.9 mph - N/A   Clear
7:56 PM 100.9 °F 19.9 °F 5% 29.63 in 10.0 mi Calm Calm - N/A   Clear
8:56 PM 93.9 °F 35.1 °F 13% 29.64 in 10.0 mi West 9.2 mph - N/A   Clear
9:56 PM 90.0 °F 34.0 °F 14% 29.65 in 10.0 mi Calm Calm - N/A   Clear
10:56 PM 86.0 °F 34.0 °F 16% 29.66 in 10.0 mi Calm Calm - N/A   Clear
11:56 PM 84.0 °F 37.9 °F 19% 29.65 in 10.0 mi South 8.1 mph - N/A   Clear